GW0518 Weather Reports


Display with metric or nautical units.
time (UTC)temp
F
wind
direction
speed
MPH
gust
MPH
rain 1hr
in
rain 24hr
in
rain mn
in
humidity
%
barometer
mb
20260509185804 61 168 6.0 16.0 0.00 0.00 0.00 78 1006.7
20260509185306 61 238 6.0 12.0 0.00 0.00 0.00 76 1006.8
20260509184805 61 243 5.0 12.0 0.00 0.00 0.00 77 1006.8
20260509184305 61 273 6.0 13.0 0.00 0.00 0.00 79 1006.9
20260509183805 61 219 6.0 13.0 0.00 0.00 0.00 81 1006.9
20260509183304 60 175 6.0 15.0 0.00 0.00 0.00 79 1007.0
20260509182805 60 194 6.0 15.0 0.00 0.00 0.00 80 1007.0
20260509182526 60 165 6.0 15.0 0.00 0.00 0.00 79 1007.0
20260509181806 60 180 5.0 15.0 0.00 0.00 0.00 78 1007.0
20260509181305 60 186 5.0 19.0 0.00 0.00 0.00 79 1007.0
20260509181022 60 213 6.0 19.0 0.00 0.00 0.00 77 1007.1
20260509180027 60 225 6.0 12.0 0.00 0.00 0.00 79 1007.0
20260509175301 60 215 5.0 10.0 0.00 0.00 0.00 80 1007.1
20260509174801 59 183 5.0 13.0 0.00 0.00 0.00 83 1007.1
20260509174301 58 234 6.0 13.0 0.00 0.00 0.00 81 1007.2
20260509173301 58 225 6.0 15.0 0.00 0.00 0.00 81 1007.2
20260509172802 57 154 5.0 15.0 0.00 0.00 0.00 81 1007.3
20260509172301 57 244 4.0 10.0 0.00 0.00 0.00 82 1007.2
20260509171800 57 224 4.0 11.0 0.00 0.00 0.00 81 1007.2
20260509171301 57 249 5.0 11.0 0.00 0.00 0.00 81 1007.2
20260509170800 57 180 5.0 13.0 0.00 0.00 0.00 81 1007.3
20260509170300 57 240 4.0 13.0 0.00 0.00 0.00 81 1007.3
20260509165803 57 214 5.0 13.0 0.00 0.00 0.00 82 1007.4
20260509165301 57 205 4.0 13.0 0.00 0.00 0.00 82 1007.4
20260509164800 57 158 4.0 9.0 0.00 0.00 0.00 83 1007.4
20260509164301 57 221 4.0 11.0 0.00 0.00 0.00 83 1007.4
20260509163800 56 197 4.0 11.0 0.00 0.00 0.00 84 1007.6
20260509163300 56 194 4.0 9.0 0.00 0.00 0.00 84 1007.8
20260509163028 56 205 4.0 9.0 0.00 0.00 0.00 83 1007.7
20260509161801 56 213 5.0 12.0 0.00 0.00 0.00 83 1007.9
20260509161300 56 182 4.0 11.0 0.00 0.00 0.00 83 1007.9
20260509160801 56 205 5.0 11.0 0.00 0.00 0.00 83 1008.1
20260509160522 56 211 5.0 10.0 0.00 0.00 0.00 83 1008.1
20260509155801 56 170 4.0 10.0 0.00 0.00 0.00 84 1008.2
20260509155301 56 221 5.0 10.0 0.00 0.00 0.00 84 1008.1
20260509154800 56 195 5.0 11.0 0.00 0.00 0.00 84 1008.1
20260509154301 56 181 4.0 11.0 0.00 0.00 0.00 84 1008.2
20260509154024 56 193 5.0 11.0 0.00 0.00 0.00 85 1008.3
20260509153301 56 196 5.0 11.0 0.00 0.00 0.00 86 1008.4
20260509152800 55 198 4.0 11.0 0.00 0.00 0.00 85 1008.4
20260509152301 55 198 5.0 11.0 0.00 0.00 0.00 87 1008.4
20260509151803 55 207 5.0 10.0 0.00 0.00 0.00 87 1008.5
20260509151302 54 148 4.0 10.0 0.00 0.00 0.00 87 1008.5
20260509150800 54 183 4.0 9.0 0.00 0.00 0.00 87 1008.6
20260509150301 54 180 4.0 9.0 0.00 0.00 0.00 87 1008.6
20260509145803 54 205 5.0 9.0 0.00 0.00 0.00 86 1008.7
20260509145300 54 190 5.0 11.0 0.00 0.00 0.00 86 1008.7
20260509144801 54 159 4.0 11.0 0.00 0.01 0.00 86 1008.7
20260509144301 55 186 4.0 10.0 0.00 0.01 0.00 87 1008.7
20260509143801 54 194 4.0 9.0 0.00 0.01 0.00 88 1008.7
20260509143520 54 191 4.0 9.0 0.00 0.02 0.00 88 1008.8
20260509142800 54 226 3.0 9.0 0.00 0.02 0.00 89 1008.8
20260509141801 53 211 3.0 7.0 0.00 0.02 0.00 90 1008.8
20260509141301 53 185 4.0 10.0 0.00 0.02 0.00 90 1008.8
20260509140800 53 204 4.0 10.0 0.00 0.02 0.00 90 1008.8
20260509140301 52 177 3.0 8.0 0.00 0.02 0.00 91 1008.8
20260509135800 52 200 4.0 9.0 0.00 0.02 0.00 91 1008.9
20260509135301 52 180 5.0 9.0 0.00 0.02 0.00 91 1008.8
20260509134801 51 173 4.0 9.0 0.00 0.02 0.00 91 1008.8
20260509134525 51 173 4.0 9.0 0.00 0.04 0.00 91 1008.8
20260509133801 51 177 4.0 9.0 0.00 0.06 0.00 91 1008.8
20260509133520 51 198 4.0 11.0 0.00 0.07 0.00 91 1008.9
20260509133026 51 191 4.0 11.0 0.00 0.08 0.00 91 1009.0
20260509132301 51 253 3.0 9.0 0.00 0.08 0.00 91 1009.1
20260509132024 50 226 3.0 10.0 0.00 0.08 0.00 92 1009.1
20260509131301 50 196 3.0 10.0 0.00 0.09 0.00 91 1009.0
20260509130802 50 209 3.0 7.0 0.00 0.09 0.00 91 1009.1
20260509130300 50 184 4.0 9.0 0.00 0.09 0.00 92 1009.1
20260509125801 49 190 5.0 12.0 0.00 0.09 0.00 91 1009.1
20260509125301 49 206 5.0 13.0 0.00 0.09 0.00 91 1009.0
20260509125029 49 179 6.0 13.0 0.00 0.09 0.00 91 1008.9
20260509124301 49 220 6.0 14.0 0.00 0.09 0.00 91 1008.9
20260509123801 49 160 5.0 14.0 0.00 0.09 0.00 91 1008.9
20260509123526 49 203 4.0 13.0 0.00 0.09 0.00 91 1009.0
20260509122801 49 205 3.0 13.0 0.00 0.09 0.00 92 1009.0
20260509122301 49 195 3.0 10.0 0.00 0.09 0.00 91 1009.0
20260509121301 48 194 3.0 9.0 0.00 0.09 0.00 91 1009.1
20260509120800 48 190 3.0 9.0 0.00 0.09 0.00 91 1009.2
20260509120301 47 199 2.0 9.0 0.00 0.09 0.00 91 1009.3
20260509120026 47 186 2.0 6.0 0.00 0.09 0.00 91 1009.4
20260509115301 47 186 3.0 6.0 0.00 0.09 0.00 92 1009.3
20260509114801 47 187 2.0 6.0 0.00 0.09 0.00 92 1009.4
20260509114300 46 186 2.0 8.0 0.00 0.09 0.00 91 1009.4
20260509114021 46 186 2.0 8.0 0.00 0.09 0.00 92 1009.5
20260509113300 45 84 1.0 3.0 0.00 0.09 0.00 91 1009.5
20260509113022 45 84 1.0 4.0 0.00 0.09 0.00 91 1009.5
20260509112306 45 84 1.0 4.0 0.00 0.09 0.00 91 1009.4
20260509111300 44 83 0.0 2.0 0.00 0.09 0.00 91 1009.5
20260509110026 44 83 0.0 1.0 0.00 0.09 0.00 91 1009.4
20260509105305 44 83 0.0 1.0 0.00 0.09 0.00 91 1009.4
20260509105021 43 83 0.0 3.0 0.00 0.09 0.00 91 1009.5
20260509104300 43 83 0.0 3.0 0.00 0.09 0.00 90 1009.4
20260509103801 43 83 1.0 2.0 0.00 0.09 0.00 90 1009.4
20260509103301 43 83 1.0 2.0 0.00 0.09 0.00 90 1009.4
20260509102801 42 83 1.0 2.0 0.00 0.09 0.00 90 1009.3
20260509102301 42 83 1.0 3.0 0.00 0.09 0.00 90 1009.4
20260509101801 42 83 1.0 3.0 0.00 0.09 0.00 90 1009.4
20260509101301 42 83 0.0 3.0 0.00 0.09 0.00 90 1009.5
20260509101017 42 83 0.0 0.0 0.00 0.09 0.00 90 1009.5
20260509100531 42 83 0.0 0.0 0.00 0.09 0.00 90 1009.5
20260509095803 42 83 0.0 0.0 0.00 0.09 0.00 90 1009.4
20260509095301 42 83 0.0 0.0 0.00 0.09 0.00 90 1009.4
20260509094801 42 83 0.0 0.0 0.00 0.09 0.00 90 1009.4
20260509094301 42 83 0.0 0.0 0.00 0.09 0.00 90 1009.3
20260509094028 42 82 1.0 4.0 0.00 0.09 0.00 90 1009.2
20260509093302 42 83 1.0 4.0 0.00 0.09 0.00 90 1009.1
20260509092801 41 82 0.0 1.0 0.00 0.09 0.00 90 1009.1
20260509092532 41 82 0.0 4.0 0.00 0.09 0.00 89 1009.1
20260509091801 41 82 1.0 4.0 0.00 0.09 0.00 90 1009.0
20260509091300 41 82 1.0 4.0 0.00 0.09 0.00 90 1009.0
20260509091026 41 82 1.0 4.0 0.00 0.09 0.00 90 1009.1
20260509090301 41 81 1.0 3.0 0.00 0.09 0.00 90 1009.2
20260509090020 40 81 1.0 4.0 0.00 0.09 0.00 90 1009.3
20260509085301 40 81 1.0 4.0 0.00 0.09 0.00 90 1009.4
20260509084801 40 81 1.0 3.0 0.00 0.09 0.00 89 1009.5
20260509084301 40 81 0.0 3.0 0.00 0.09 0.00 89 1009.5
20260509083801 39 81 0.0 0.0 0.00 0.09 0.00 89 1009.6
20260509083300 39 81 0.0 0.0 0.00 0.09 0.00 89 1009.8
20260509082801 39 81 0.0 0.0 0.00 0.09 0.00 89 1009.8
20260509082306 39 81 0.0 0.0 0.00 0.09 0.00 88 1009.9
20260509081802 39 81 0.0 0.0 0.00 0.09 0.00 88 1009.9
20260509081301 39 81 0.0 0.0 0.00 0.09 0.00 88 1009.9
20260509080801 39 81 0.0 0.0 0.00 0.09 0.00 88 1009.8
20260509080522 39 81 0.0 0.0 0.00 0.09 0.00 87 1010.0
20260509075801 39 81 0.0 0.0 0.00 0.09 0.00 87 1010.0
20260509075534 39 81 0.0 0.0 0.00 0.09 0.00 87 1009.9
20260509075022 39 81 0.0 0.0 0.00 0.09 0.00 87 1010.0
20260509074300 39 81 0.0 0.0 0.00 0.09 0.00 86 1010.0
20260509073801 39 81 0.0 0.0 0.00 0.09 0.00 86 1010.0
20260509073522 39 81 0.0 0.0 0.00 0.09 0.00 86 1010.0
20260509072801 40 81 0.0 0.0 0.00 0.09 0.00 86 1010.1
20260509072306 40 81 0.0 0.0 0.00 0.09 0.00 86 1010.1
20260509071801 40 81 0.0 0.0 0.00 0.10 0.00 86 1010.2
20260509071301 40 81 0.0 0.0 0.00 0.10 0.00 86 1010.2
20260509070801 40 81 0.0 0.0 0.00 0.10 0.00 86 1010.1
20260509070021 40 81 0.0 0.0 0.00 0.10 0.00 86 1010.2
20260509065305 40 81 0.0 0.0 0.00 0.10 0.00 86 1010.2
20260509064801 41 81 0.0 0.0 0.00 0.10 0.00 86 1010.2
20260509064522 41 81 0.0 0.0 0.00 0.10 0.00 86 1010.2
20260509063800 41 81 0.0 0.0 0.00 0.10 0.00 86 1010.4
20260509063300 41 81 0.0 0.0 0.00 0.10 0.00 86 1010.4
20260509062801 41 81 0.0 0.0 0.00 0.10 0.00 87 1010.3
20260509062300 41 81 0.0 0.0 0.00 0.10 0.00 87 1010.5
20260509061801 41 81 0.0 0.0 0.00 0.10 0.00 87 1010.5
20260509061301 41 81 0.0 0.0 0.00 0.10 0.00 87 1010.5
20260509060801 41 81 0.0 0.0 0.00 0.10 0.00 87 1010.6
20260509060300 41 81 0.0 0.0 0.00 0.10 0.00 88 1010.7
20260509055801 41 81 0.0 0.0 0.00 0.11 0.00 89 1010.8
20260509055301 41 81 0.0 0.0 0.00 0.12 0.00 89 1010.9
20260509054802 40 81 0.0 0.0 0.00 0.12 0.00 89 1010.9
20260509054301 40 81 0.0 0.0 0.00 0.12 0.00 90 1011.0
20260509054017 40 81 0.0 0.0 0.00 0.12 0.00 90 1011.0
20260509053301 40 81 0.0 0.0 0.00 0.12 0.00 89 1011.1
20260509052801 40 81 0.0 0.0 0.00 0.12 0.00 89 1011.2
20260509052301 40 81 0.0 0.0 0.00 0.12 0.00 89 1011.2
20260509051805 40 81 0.0 0.0 0.00 0.12 0.00 89 1011.3
20260509051304 40 81 0.0 0.0 0.00 0.12 0.00 89 1011.3
20260509050801 40 81 0.0 0.0 0.00 0.12 0.00 89 1011.4
20260509050301 39 81 0.0 0.0 0.00 0.12 0.00 89 1011.4
20260509045802 39 81 0.0 0.0 0.00 0.12 0.00 89 1011.3
20260509045301 39 81 0.0 0.0 0.00 0.12 0.00 89 1011.4
20260509044801 39 81 0.0 0.0 0.00 0.12 0.00 89 1011.4
20260509044300 39 81 0.0 0.0 0.00 0.12 0.00 89 1011.5
20260509043801 39 81 0.0 0.0 0.00 0.12 0.00 89 1011.5
20260509043300 39 81 0.0 0.0 0.00 0.12 0.00 89 1011.5
20260509042801 38 81 0.0 0.0 0.00 0.12 0.00 88 1011.5
20260509042300 38 81 0.0 1.0 0.00 0.12 0.00 88 1011.6
20260509042017 38 81 0.0 1.0 0.00 0.12 0.00 88 1011.5
20260509041302 38 81 0.0 2.0 0.00 0.12 0.00 87 1011.7
20260509040801 38 81 0.0 2.0 0.00 0.12 0.00 87 1011.7
20260509035801 38 81 0.0 0.0 0.00 0.12 0.12 86 1011.6
20260509035301 38 81 0.0 0.0 0.00 0.12 0.12 86 1011.6
20260509034801 38 81 0.0 0.0 0.00 0.12 0.12 85 1011.7
20260509034301 38 81 0.0 0.0 0.00 0.12 0.12 85 1011.7
20260509033300 38 81 0.0 0.0 0.00 0.12 0.12 85 1011.9
20260509033024 38 81 0.0 0.0 0.00 0.12 0.12 85 1011.7
20260509032523 38 81 0.0 0.0 0.00 0.12 0.12 84 1011.7
20260509031801 38 81 0.0 0.0 0.00 0.12 0.12 84 1011.7
20260509031525 38 81 0.0 0.0 0.00 0.12 0.12 83 1011.7
20260509030800 38 81 0.0 0.0 0.00 0.12 0.12 82 1011.7
20260509030301 38 81 0.0 0.0 0.00 0.12 0.12 82 1011.7
20260509025759 39 81 0.0 0.0 0.00 0.12 0.12 81 1011.7
20260509025259 39 81 0.0 0.0 0.00 0.12 0.12 81 1011.7
20260509024759 39 81 0.0 0.0 0.00 0.12 0.12 81 1011.9
20260509024300 39 81 0.0 0.0 0.00 0.12 0.12 80 1011.9
20260509023259 40 81 0.0 0.0 0.00 0.12 0.12 80 1012.0
20260509022759 40 81 0.0 0.0 0.00 0.12 0.12 80 1011.9
20260509022259 40 81 0.0 0.0 0.00 0.12 0.12 80 1012.0
20260509021801 40 81 0.0 0.0 0.00 0.12 0.12 79 1011.9
20260509021259 40 81 0.0 0.0 0.00 0.12 0.12 78 1011.9
20260509020759 41 81 0.0 0.0 0.00 0.12 0.12 78 1011.9
20260509020259 41 81 0.0 0.0 0.00 0.12 0.12 78 1012.0
20260509020019 41 81 0.0 0.0 0.00 0.12 0.12 77 1012.0
20260509015259 42 81 0.0 0.0 0.00 0.12 0.12 77 1011.9
20260509014759 42 81 0.0 0.0 0.00 0.12 0.12 77 1011.9
20260509014259 42 81 0.0 1.0 0.00 0.12 0.12 77 1011.7
20260509014027 42 81 0.0 1.0 0.00 0.12 0.12 76 1011.7
20260509013521 43 81 0.0 0.0 0.00 0.12 0.12 75 1011.7
20260509013022 43 81 0.0 0.0 0.00 0.12 0.12 73 1011.5
20260509012259 43 81 0.0 0.0 0.00 0.12 0.12 72 1011.4
20260509011759 44 81 0.0 0.0 0.00 0.12 0.12 71 1011.3
20260509011017 44 81 0.0 0.0 0.00 0.12 0.12 69 1011.2
20260509010259 45 81 0.0 0.0 0.00 0.12 0.12 68 1011.1
20260509010018 46 81 0.0 0.0 0.00 0.12 0.12 68 1011.1
20260509005300 46 81 0.0 0.0 0.00 0.12 0.12 67 1010.9
20260509004759 46 81 0.0 0.0 0.00 0.12 0.12 67 1010.9
20260509004259 47 81 0.0 0.0 0.00 0.12 0.12 66 1010.9
20260509003759 47 81 0.0 1.0 0.00 0.12 0.12 65 1011.0
20260509003259 48 81 0.0 1.0 0.00 0.12 0.12 64 1010.9
20260509003026 48 81 0.0 1.0 0.00 0.12 0.12 62 1010.8
20260509002259 49 81 0.0 0.0 0.00 0.12 0.12 60 1010.8
20260509002021 50 81 0.0 0.0 0.00 0.12 0.12 59 1010.8
20260509001258 51 81 0.0 2.0 0.00 0.12 0.12 57 1010.8
20260509000759 51 81 0.0 2.0 0.00 0.12 0.12 55 1010.7
20260509000259 52 81 0.0 0.0 0.00 0.12 0.12 53 1010.7
20260508235759 52 81 0.0 0.0 0.00 0.12 0.12 52 1010.7
20260508235259 53 81 0.0 2.0 0.00 0.12 0.12 52 1010.7
20260508234759 53 81 1.0 3.0 0.00 0.12 0.12 51 1010.7
20260508234524 54 81 0.0 3.0 0.00 0.12 0.12 47 1010.6
20260508233759 54 81 0.0 2.0 0.00 0.12 0.12 46 1010.6
20260508233300 54 81 1.0 2.0 0.00 0.12 0.12 45 1010.5
20260508232758 55 81 1.0 4.0 0.00 0.12 0.12 47 1010.5
20260508232259 55 81 1.0 4.0 0.00 0.12 0.12 46 1010.5
20260508231759 55 81 1.0 4.0 0.00 0.12 0.12 46 1010.5
20260508231257 55 80 1.0 4.0 0.00 0.12 0.12 46 1010.5
20260508230757 55 80 1.0 5.0 0.00 0.12 0.12 45 1010.5
20260508230257 55 27 2.0 5.0 0.00 0.12 0.12 47 1010.4
20260508225757 55 30 3.0 5.0 0.00 0.12 0.12 45 1010.4
20260508225518 55 40 3.0 6.0 0.00 0.12 0.12 46 1010.4
20260508224757 55 40 2.0 6.0 0.00 0.12 0.12 47 1010.4
20260508224257 55 55 2.0 4.0 0.00 0.12 0.12 48 1010.5
20260508224018 55 55 2.0 5.0 0.00 0.12 0.12 48 1010.5
20260508223522 56 55 2.0 8.0 0.00 0.12 0.12 48 1010.4
20260508222757 56 10 2.0 8.0 0.00 0.12 0.12 48 1010.5
20260508222257 55 51 2.0 4.0 0.00 0.12 0.12 50 1010.6
20260508221757 55 51 1.0 4.0 0.00 0.12 0.12 50 1010.7
20260508221257 55 51 2.0 5.0 0.00 0.12 0.12 50 1010.7
20260508220756 55 51 3.0 5.0 0.00 0.12 0.12 49 1010.6
20260508220257 55 79 3.0 7.0 0.00 0.12 0.12 51 1010.7
20260508215758 55 79 4.0 8.0 0.00 0.12 0.12 51 1010.7
20260508215520 55 355 3.0 10.0 0.00 0.12 0.12 51 1010.8
20260508214757 54 0 2.0 10.0 0.00 0.12 0.12 52 1010.9
20260508214257 54 290 2.0 5.0 0.00 0.12 0.12 49 1010.9
20260508213757 55 290 2.0 8.0 0.00 0.12 0.12 50 1010.9
20260508213257 55 300 2.0 8.0 0.00 0.12 0.12 49 1011.0
20260508212757 55 272 2.0 6.0 0.00 0.12 0.12 51 1010.9
20260508212257 54 347 2.0 4.0 0.00 0.12 0.12 52 1011.0
20260508211757 54 264 3.0 9.0 0.00 0.12 0.12 50 1010.9
20260508211257 54 269 4.0 9.0 0.00 0.12 0.12 52 1011.0
20260508210757 54 257 4.0 9.0 0.00 0.12 0.12 50 1011.0
20260508210257 54 222 3.0 9.0 0.00 0.12 0.12 52 1011.0
20260508205757 54 263 2.0 8.0 0.00 0.12 0.12 53 1011.0
20260508205257 54 333 4.0 10.0 0.00 0.12 0.12 53 1011.0
20260508204757 54 204 5.0 10.0 0.00 0.12 0.12 52 1011.1
20260508204257 55 22 5.0 10.0 0.00 0.12 0.12 52 1011.1
20260508203757 55 303 4.0 10.0 0.00 0.12 0.12 54 1011.1
20260508203257 54 44 4.0 9.0 0.00 0.12 0.12 54 1011.2
20260508202756 54 105 4.0 9.0 0.00 0.12 0.12 54 1011.2
20260508202519 54 23 3.0 10.0 0.00 0.12 0.12 57 1011.1
20260508201756 53 34 3.0 10.0 0.00 0.12 0.12 56 1011.2
20260508201257 53 289 4.0 10.0 0.00 0.12 0.12 55 1011.2
20260508200757 53 298 4.0 10.0 0.00 0.12 0.12 55 1011.2
20260508200257 53 244 3.0 8.0 0.00 0.12 0.12 58 1011.3
20260508195756 53 328 4.0 10.0 0.00 0.12 0.12 58 1011.4
20260508195256 53 315 4.0 10.0 0.00 0.12 0.12 57 1011.4
20260508194801 54 262 4.0 9.0 0.00 0.12 0.12 63 1011.4
20260508194523 54 321 4.0 13.0 0.00 0.12 0.12 58 1011.5
20260508193757 54 238 4.0 13.0 0.00 0.12 0.12 57 1011.6
20260508193257 53 355 5.0 12.0 0.00 0.12 0.12 61 1011.6
20260508193023 53 284 5.0 15.0 0.00 0.12 0.12 59 1011.9
20260508192257 53 304 3.0 15.0 0.00 0.12 0.12 61 1011.6
20260508191756 52 221 4.0 10.0 0.00 0.12 0.12 65 1011.6
20260508191257 53 266 4.0 13.0 0.00 0.12 0.12 65 1011.7
20260508190756 53 294 5.0 13.0 0.00 0.12 0.12 66 1011.6
20260508190256 52 250 5.0 13.0 0.00 0.12 0.12 63 1011.7